Location: Unspecified
(0.0000°N, 0.0000°E)
Time: 16:47:32
(UTC+00:00)

Vanguard 3 - Pass Details

Date: 03 February 2023
Orbit: 509 x 3249 km, 33.3° (Epoch: 20 March)

Event Time Altitude Azimuth Distance (km) Brightness Sun altitude
Rises 21:29:20 0° 325° (NW) 5,535 11.5 -46.3°
Reaches altitude 10° 21:35:16 10° 346° (NNW) 5,080 11.1 -47.6°
Enters shadow 21:35:47 11° 348° (NNW) 5,060 11.0 -47.7°
Maximum altitude 21:43:41 16° 19° (NNE) 5,170 - -49.5°
Drops below altitude 10° 21:53:32 10° 51° (NE) 6,090 - -51.7°
Sets 22:02:00 0° 70° (ENE) 7,210 - -53.6°
